FENGYUN 1C DEB

Satellite information

Favourite Embed

Satellite Type and Status

DEBRISIN ORBIT

Key statistics

Satellite FENGYUN 1C DEB at a glance.

Uptime

9554

Days in orbit

Revolutions

≈ 14.3

Per day

Orbit

SSO

Sun Synchronous Orbit

Inclination

99.1

Latest

Satellite identification and parameters

Extended collection of information and parameters for FENGYUN 1C DEB.

Object identification

Identified? True

Debris? True

Object name: FENGYUN 1C DEB

International designator: 1999-025DPS

Object number (NORAD): 35210

Object ID (CCSDS): 35210

Country: PEOPLES REPUBLIC OF CHINA (PRC)

Current information (Y/N): Y

RCS size: SMALL

Orbital parameters

Period: 100.63 minutes

Inclination: 99.0938 deg

SMA: 7166.601 km

Apoapsis: 825.935 km

Periapsis: 750.997 km

RAAN: 176.7339 deg

Eccentricy: 0.0052283

Argument of periapsis: 3.4883 deg

Mean anomaly: 52.4068 deg

Mean motion: 14.30977795 rev/day

Mean motion (dot): 0.00003856 rev/day2

B* drag term: 0.0014619 1/REarth

Two-line elements (TLE)

Creation date: June 30, 2025, 5:29 p.m.

Reference frame: TEME

Reference center: EARTH

Epoch: June 29, 2025, 11:11 p.m. UTC

TLE line 0: 0 FENGYUN 1C DEB

TLE line 1: 1 35210U 99025DPS 25180.96631221 .00003856 00000-0 14619-2 0 9997

TLE line 2: 2 35210 99.0938 176.7339 0052283 3.4883 52.4068 14.30977795877507

Live tracking on map

Real-time ground track for satellite FENGYUN 1C DEB.

In-orbit conjunctions

A list of the most updated potential collisions computed for object FENGYUN 1C DEB.

Target Orbit TCA Probability of collision Miss distance Type
IRS B3 SSO 2025-05-12 01:17:25 0.0003300171 282.0 (m) PAYLOAD
DMSP 5D-2 F11 (USA 73) SSO 2025-04-07 19:22:03 0.0001493862 819.0 (m) PAYLOAD
SL-16 R/B LEO 2024-11-11 23:48:24 0.0001967633 409.0 (m) ROCKET BODY

Associated space launch

Chinese polar orbiting meteorological satellite

FENGYUN 1C DEB was lifted into orbit during the mission ‘Long March 4B | Feng Yun 1C’, on board a Long March 4B space rocket.

The launch took place on May 10, 1999, 1:33 a.m. from Launch Complex 7.

For more information about the launch, click the button.

Launch to space Long March 4B | Feng Yun 1C
Long March 4B | Feng Yun 1C

Agency: N/A

Status: Launch Successful

Launch date: May 10, 1999, 1:33 a.m. UTC

Rocket: Long March 4B

Launch pad: Launch Complex 7

Location: Taiyuan Satellite Launch Center, People's Republic of China

...

Latest news about this satellite

There are no fresh news available about this satellite. Check back as we update our databases every day.


Newsletter sign-up

Weekly statistics, charts and insights to help you stay on top of the space industry.